Location: Cuiry
(49.3858°N, 3.7708°E)
Time: 14:06:28
(UTC+00:00)

Cosmos 1821 Rocket - Visible Passes

Search period start: 19 April 2026 00:00
Search period end: 29 April 2026 00:00
Orbit: 945 x 1002 km, 82.9° (Epoch: 19 April)

Date Brightness Start Highest point End Pass type
(mag) Time Alt. Az. Time Alt. Az. Time Alt. Az.
19 Apr 4.0 20:07:43 10° S 20:14:00 89° W 20:20:25 10° N visible
19 Apr 6.5 21:56:03 10° WSW 22:00:20 19° WNW 22:04:42 10° NNW visible
20 Apr 4.7 20:32:50 10° SSW 20:38:58 55° WNW 20:45:14 10° N visible
20 Apr 6.8 22:23:50 10° WNW 22:25:56 12° NW 22:28:03 10° NNW visible
21 Apr 4.3 19:12:34 10° SSE 19:18:32 48° E 19:24:37 10° NNE visible
21 Apr 5.6 20:58:26 10° SW 21:04:06 34° WNW 21:09:52 10° N visible
22 Apr 4.0 19:37:00 10° S 19:43:17 79° E 19:49:40 10° NNE visible
22 Apr 6.4 21:24:40 10° WSW 21:29:25 22° WNW 21:34:14 10° NNW visible
23 Apr 4.5 20:01:56 10° SSW 20:08:10 65° WNW 20:14:32 10° N visible
23 Apr 6.8 21:51:53 10° W 21:54:56 14° NW 21:58:02 10° NNW visible
24 Apr 5.5 20:27:22 10° SW 20:33:15 40° WNW 20:39:14 10° N visible
25 Apr 6.3 20:53:23 10° WSW 20:58:31 25° WNW 21:03:42 10° N visible
26 Apr 4.4 19:31:06 10° SSW 19:37:24 75° W 19:43:49 10° N visible
26 Apr 6.8 21:20:13 10° W 21:23:58 16° WNW 21:27:45 10° NNW visible
27 Apr 5.2 19:56:22 10° SW 20:02:25 46° WNW 20:08:34 10° N visible
28 Apr 6.1 20:22:12 10° SW 20:27:37 29° WNW 20:33:07 10° N visible
